Location: Gairloch Mountain Observatory
(46.1383°N, 60.9640°W)
Time: 16:11:59
(UTC-03:00)

CENTAUR R/B - Visible Passes

Search period start: 22 May 2017 00:00
Search period end: 01 June 2017 00:00
Orbit: 830 x 1359 km, 63.5° (Epoch: 14 May)

Date Brightness Start Highest point End Pass type
(mag) Time Alt. Az. Time Alt. Az. Time Alt. Az.
22 May 3.4 21:53:14 10° NW 22:00:59 64° WSW 22:08:31 13° SSE visible
22 May 5.0 23:46:23 10° WNW 23:50:33 15° WSW 23:54:48 10° SW visible
23 May 3.2 21:04:55 10° NW 21:12:46 89° NE 21:21:12 10° SE visible
23 May 4.6 22:56:39 10° WNW 23:02:50 25° WSW 23:09:15 10° SSW visible
24 May 4.1 22:07:45 10° NW 22:14:57 39° WSW 22:22:32 10° S visible
25 May 3.6 21:19:13 10° NW 21:26:54 59° WSW 21:35:06 10° SSE visible
25 May 5.2 23:13:01 10° WNW 23:16:20 13° WSW 23:19:44 10° SW visible
26 May 4.9 22:22:50 10° WNW 22:28:40 22° WSW 22:34:43 10° SSW visible
27 May 4.4 21:33:49 10° NW 21:40:50 35° WSW 21:48:11 10° S visible
28 May 5.4 22:40:03 10° W 22:42:07 11° W 22:44:13 10° WSW visible
29 May 5.1 21:49:05 10° WNW 21:54:29 20° WSW 22:00:05 10° SSW visible
